Location: 10048 Water Well
(33.8501°N, 106.8364°W)
Time: 10:30:47
(UTC+00:00)

Cosmos 1553 Rocket - Pass Details

Date: 11 December 2025
Orbit: 942 x 1006 km, 82.9° (Epoch: 21 January)

Event Time Altitude Azimuth Distance (km) Brightness Sun altitude
Rises 13:16:29 0° 350° (N) 3,732 6.7 -9.5°
Reaches altitude 10° 13:19:02 10° 349° (NNW) 2,783 6.1 -9.0°
Maximum altitude 13:25:23 70° 267° (W) 1,067 4.1 -7.8°
Drops below altitude 10° 13:31:43 10° 185° (S) 2,767 6.6 -6.6°
Sets 13:34:14 0° 183° (S) 3,709 7.3 -6.1°
